Time,TemperatureF,DewpointF,PressureIn,WindDirection,WindDirectionDegrees,WindSpeedMPH,WindSpeedGustMPH,Humidity,HourlyPrecipIn,Conditions,Clouds,dailyrainin,SolarRadiationWatts/m^2,SoftwareType,DateUTC
2013-06-25 00:01:00,72.0,69.0,-100.00,SSW,202,3.0,8.0,89,0.00,,,0.00,0.000000,,2013-06-25 05:01:00,
2013-06-25 00:11:00,72.0,69.0,-100.00,SSW,202,3.0,8.0,89,0.00,,,0.00,0.000000,,2013-06-25 05:11:00,
2013-06-25 00:44:00,72.0,69.0,-100.00,SW,233,4.0,7.0,89,0.00,,,0.00,0.000000,,2013-06-25 05:44:00,
2013-06-25 00:52:00,72.0,69.0,-100.00,SW,233,4.0,7.0,89,0.00,,,0.00,0.000000,,2013-06-25 05:52:00,
2013-06-25 01:01:00,72.0,69.0,-100.00,SW,233,4.0,7.0,89,0.00,,,0.00,0.000000,,2013-06-25 06:01:00,
2013-06-25 01:11:00,72.0,69.0,-100.00,SW,233,4.0,7.0,89,0.00,,,0.00,0.000000,,2013-06-25 06:11:00,
2013-06-25 01:43:00,71.0,68.0,-100.00,SW,225,4.0,7.0,90,0.00,,,0.00,0.000000,,2013-06-25 06:43:00,
2013-06-25 01:52:00,71.0,68.0,-100.00,SW,225,4.0,7.0,90,0.00,,,0.00,0.000000,,2013-06-25 06:52:00,
2013-06-25 02:02:00,71.0,68.0,-100.00,SW,225,4.0,7.0,90,0.00,,,0.00,0.000000,,2013-06-25 07:02:00,
2013-06-25 02:11:00,71.0,68.0,-100.00,SW,225,4.0,7.0,90,0.00,,,0.00,0.000000,,2013-06-25 07:11:00,
2013-06-25 02:43:00,70.0,68.0,-100.00,West,261,2.0,6.0,93,0.00,,,0.00,0.000000,,2013-06-25 07:43:00,
2013-06-25 02:52:00,70.0,68.0,-100.00,West,261,2.0,6.0,93,0.00,,,0.00,0.000000,,2013-06-25 07:52:00,
2013-06-25 03:01:00,70.0,68.0,-100.00,West,261,2.0,6.0,93,0.00,,,0.00,0.000000,,2013-06-25 08:01:00,
2013-06-25 03:11:00,70.0,68.0,-100.00,West,261,2.0,6.0,93,0.00,,,0.00,0.000000,,2013-06-25 08:11:00,
2013-06-25 03:12:00,69.0,68.0,-100.00,WSW,245,2.0,3.0,95,0.00,,,0.00,0.000000,,2013-06-25 08:12:00,
2013-06-25 03:43:00,69.0,68.0,-100.00,WSW,245,2.0,3.0,95,0.00,,,0.00,0.000000,,2013-06-25 08:43:00,
2013-06-25 03:53:00,69.0,68.0,-100.00,WSW,245,2.0,3.0,95,0.00,,,0.00,0.000000,,2013-06-25 08:53:00,
2013-06-25 04:02:00,69.0,68.0,-100.00,WSW,245,2.0,3.0,95,0.00,,,0.00,0.000000,,2013-06-25 09:02:00,
2013-06-25 04:43:00,69.0,68.0,-100.00,SW,234,1.0,4.0,95,0.00,,,0.00,0.000000,,2013-06-25 09:43:00,
2013-06-25 04:53:00,69.0,68.0,-100.00,SW,234,1.0,4.0,95,0.00,,,0.00,0.000000,,2013-06-25 09:53:00,
2013-06-25 05:01:00,69.0,68.0,-100.00,SW,234,1.0,4.0,95,0.00,,,0.00,0.000000,,2013-06-25 10:01:00,
2013-06-25 05:11:00,69.0,68.0,-100.00,SW,234,1.0,4.0,95,0.00,,,0.00,0.000000,,2013-06-25 10:11:00,
2013-06-25 05:12:00,69.0,68.0,-100.00,WNW,282,2.0,5.0,95,0.00,,,0.00,0.000000,,2013-06-25 10:12:00,
2013-06-25 05:33:00,69.0,68.0,-100.00,WNW,282,2.0,5.0,95,0.00,,,0.00,0.000000,,2013-06-25 10:33:00,
2013-06-25 05:43:00,69.0,68.0,-100.00,WNW,282,2.0,5.0,95,0.00,,,0.00,0.000000,,2013-06-25 10:43:00,
2013-06-25 05:52:00,69.0,68.0,-100.00,WNW,282,2.0,5.0,95,0.00,,,0.00,0.000000,,2013-06-25 10:52:00,
2013-06-25 06:02:00,69.0,68.0,-100.00,WNW,282,2.0,5.0,95,0.00,,,0.00,0.000000,,2013-06-25 11:02:00,
2013-06-25 06:43:00,69.0,68.0,-100.00,WSW,255,2.0,4.0,95,0.00,,,0.00,25.000000,,2013-06-25 11:43:00,
2013-06-25 06:52:00,69.0,68.0,-100.00,WSW,255,2.0,4.0,95,0.00,,,0.00,25.000000,,2013-06-25 11:52:00,
2013-06-25 07:02:00,69.0,68.0,-100.00,WSW,255,2.0,4.0,95,0.00,,,0.00,25.000000,,2013-06-25 12:02:00,
2013-06-25 07:11:00,69.0,68.0,-100.00,WSW,255,2.0,4.0,95,0.00,,,0.00,25.000000,,2013-06-25 12:11:00,
2013-06-25 07:43:00,70.0,67.0,-100.00,WSW,247,4.0,6.0,90,0.00,,,0.00,92.000000,,2013-06-25 12:43:00,
2013-06-25 07:55:00,70.0,67.0,-100.00,WSW,247,4.0,6.0,90,0.00,,,0.00,92.000000,,2013-06-25 12:55:00,
2013-06-25 08:02:00,70.0,67.0,-100.00,WSW,247,4.0,6.0,90,0.00,,,0.00,92.000000,,2013-06-25 13:02:00,
2013-06-25 08:11:00,70.0,67.0,-100.00,WSW,247,4.0,6.0,90,0.00,,,0.00,92.000000,,2013-06-25 13:11:00,
2013-06-25 08:42:00,77.0,68.0,-100.00,WNW,296,3.0,7.0,75,0.00,,,0.00,315.000000,,2013-06-25 13:42:00,
2013-06-25 08:53:00,77.0,68.0,-100.00,WNW,296,3.0,7.0,75,0.00,,,0.00,315.000000,,2013-06-25 13:53:00,
2013-06-25 09:01:00,77.0,68.0,-100.00,WNW,296,3.0,7.0,75,0.00,,,0.00,315.000000,,2013-06-25 14:01:00,
2013-06-25 09:11:00,77.0,68.0,-100.00,WNW,296,3.0,7.0,75,0.00,,,0.00,315.000000,,2013-06-25 14:11:00,
2013-06-25 09:43:00,77.0,68.0,-100.00,SW,220,4.0,6.0,75,0.00,,,0.00,335.000000,,2013-06-25 14:43:00,
2013-06-25 09:53:00,77.0,68.0,-100.00,SW,220,4.0,6.0,75,0.00,,,0.00,335.000000,,2013-06-25 14:53:00,
2013-06-25 10:02:00,77.0,68.0,-100.00,SW,220,4.0,6.0,75,0.00,,,0.00,335.000000,,2013-06-25 15:02:00,
2013-06-25 10:11:00,77.0,68.0,-100.00,SW,220,4.0,6.0,75,0.00,,,0.00,335.000000,,2013-06-25 15:11:00,
2013-06-25 10:12:00,83.0,67.0,-100.00,NNW,341,4.0,7.0,58,0.00,,,0.00,599.000000,,2013-06-25 15:12:00,
2013-06-25 10:44:00,83.0,67.0,-100.00,NNW,341,4.0,7.0,58,0.00,,,0.00,599.000000,,2013-06-25 15:44:00,
2013-06-25 10:53:00,83.0,67.0,-100.00,NNW,341,4.0,7.0,58,0.00,,,0.00,599.000000,,2013-06-25 15:53:00,
2013-06-25 11:03:00,83.0,67.0,-100.00,NNW,341,4.0,7.0,58,0.00,,,0.00,599.000000,,2013-06-25 16:03:00,
2013-06-25 11:35:00,86.0,62.0,-100.00,East,95,3.0,8.0,45,0.00,,,0.00,871.000000,,2013-06-25 16:35:00,
2013-06-25 11:44:00,86.0,62.0,-100.00,East,95,3.0,8.0,45,0.00,,,0.00,871.000000,,2013-06-25 16:44:00,
2013-06-25 11:52:00,86.0,62.0,-100.00,East,95,3.0,8.0,45,0.00,,,0.00,871.000000,,2013-06-25 16:52:00,
2013-06-25 12:01:00,86.0,62.0,-100.00,East,95,3.0,8.0,45,0.00,,,0.00,871.000000,,2013-06-25 17:01:00,
2013-06-25 12:11:00,86.0,62.0,-100.00,East,95,3.0,8.0,45,0.00,,,0.00,871.000000,,2013-06-25 17:11:00,
2013-06-25 12:12:00,87.0,60.0,-100.00,South,175,4.0,9.0,40,0.00,,,-99.99,939.000000,,2013-06-25 17:12:00,
2013-06-25 12:44:00,87.0,60.0,-100.00,South,175,4.0,9.0,40,0.00,,,-99.99,939.000000,,2013-06-25 17:44:00,
2013-06-25 12:53:00,87.0,60.0,-100.00,South,175,4.0,9.0,40,0.00,,,-99.99,939.000000,,2013-06-25 17:53:00,
2013-06-25 13:02:00,87.0,60.0,-100.00,South,175,4.0,9.0,40,0.00,,,-99.99,939.000000,,2013-06-25 18:02:00,
2013-06-25 13:12:00,88.0,61.0,-100.00,NNW,333,2.0,7.0,40,0.00,,,0.00,813.000000,,2013-06-25 18:12:00,
2013-06-25 13:45:00,88.0,61.0,-100.00,NNW,333,2.0,7.0,40,0.00,,,0.00,813.000000,,2013-06-25 18:45:00,
2013-06-25 13:53:00,88.0,61.0,-100.00,NNW,333,2.0,7.0,40,0.00,,,0.00,813.000000,,2013-06-25 18:53:00,
2013-06-25 14:01:00,88.0,61.0,-100.00,NNW,333,2.0,7.0,40,0.00,,,0.00,813.000000,,2013-06-25 19:01:00,
2013-06-25 14:44:00,89.0,58.0,-100.00,SW,235,6.0,9.0,35,0.00,,,0.00,1041.000000,,2013-06-25 19:44:00,
2013-06-25 14:54:00,89.0,58.0,-100.00,SW,235,6.0,9.0,35,0.00,,,0.00,1041.000000,,2013-06-25 19:54:00,
2013-06-25 15:02:00,89.0,58.0,-100.00,SW,235,6.0,9.0,35,0.00,,,0.00,1041.000000,,2013-06-25 20:02:00,
2013-06-25 15:11:00,89.0,58.0,-100.00,SW,235,6.0,9.0,35,0.00,,,0.00,1041.000000,,2013-06-25 20:11:00,
2013-06-25 15:43:00,89.0,57.0,-100.00,SW,217,4.0,11.0,34,0.00,,,0.00,932.000000,,2013-06-25 20:43:00,
2013-06-25 15:52:00,89.0,57.0,-100.00,SW,217,4.0,11.0,34,0.00,,,0.00,932.000000,,2013-06-25 20:52:00,
2013-06-25 16:01:00,89.0,57.0,-100.00,SW,217,4.0,11.0,34,0.00,,,0.00,932.000000,,2013-06-25 21:01:00,
2013-06-25 16:11:00,89.0,57.0,-100.00,SW,217,4.0,11.0,34,0.00,,,0.00,932.000000,,2013-06-25 21:11:00,
2013-06-25 16:43:00,85.0,64.0,-100.00,South,176,5.0,11.0,49,0.00,,,0.00,396.000000,,2013-06-25 21:43:00,
2013-06-25 16:53:00,85.0,64.0,-100.00,South,176,5.0,11.0,49,0.00,,,0.00,396.000000,,2013-06-25 21:53:00,
2013-06-25 17:01:00,85.0,64.0,-100.00,South,176,5.0,11.0,49,0.00,,,0.00,396.000000,,2013-06-25 22:01:00,
2013-06-25 17:11:00,85.0,64.0,-100.00,South,176,5.0,11.0,49,0.00,,,0.00,396.000000,,2013-06-25 22:11:00,
2013-06-25 17:42:00,84.0,65.0,-100.00,SE,128,6.0,14.0,53,0.00,,,0.00,385.000000,,2013-06-25 22:42:00,
2013-06-25 17:52:00,84.0,65.0,-100.00,SE,128,6.0,14.0,53,0.00,,,0.00,385.000000,,2013-06-25 22:52:00,
2013-06-25 18:01:00,84.0,65.0,-100.00,SE,128,6.0,14.0,53,0.00,,,0.00,385.000000,,2013-06-25 23:01:00,
2013-06-25 18:11:00,84.0,65.0,-100.00,SE,128,6.0,14.0,53,0.00,,,0.00,385.000000,,2013-06-25 23:11:00,
2013-06-25 18:44:00,82.0,69.0,-100.00,South,178,5.0,11.0,66,0.00,,,0.00,238.000000,,2013-06-25 23:44:00,
2013-06-25 18:52:00,82.0,69.0,-100.00,South,178,5.0,11.0,66,0.00,,,0.00,238.000000,,2013-06-25 23:52:00,
2013-06-25 19:02:00,82.0,69.0,-100.00,South,178,5.0,11.0,66,0.00,,,0.00,238.000000,,2013-06-26 00:02:00,
2013-06-25 19:11:00,82.0,69.0,-100.00,South,178,5.0,11.0,66,0.00,,,0.00,238.000000,,2013-06-26 00:11:00,
2013-06-25 20:43:00,79.0,68.0,-100.00,SW,218,3.0,7.0,70,-99.99,,,0.00,93.000000,,2013-06-26 01:43:00,
2013-06-25 20:53:00,79.0,68.0,-100.00,SW,218,3.0,7.0,70,-99.99,,,0.00,93.000000,,2013-06-26 01:53:00,
2013-06-25 21:02:00,79.0,68.0,-100.00,SW,218,3.0,7.0,70,-99.99,,,0.00,93.000000,,2013-06-26 02:02:00,
2013-06-25 21:11:00,79.0,68.0,-100.00,SW,218,3.0,7.0,70,-99.99,,,0.00,93.000000,,2013-06-26 02:11:00,
2013-06-25 21:43:00,73.0,69.0,-100.00,ENE,73,2.0,5.0,86,0.00,,,0.00,12.000000,,2013-06-26 02:43:00,
2013-06-25 21:53:00,73.0,69.0,-100.00,ENE,73,2.0,5.0,86,0.00,,,0.00,12.000000,,2013-06-26 02:53:00,
2013-06-25 22:02:00,73.0,69.0,-100.00,ENE,73,2.0,5.0,86,0.00,,,0.00,12.000000,,2013-06-26 03:02:00,
2013-06-25 22:11:00,73.0,69.0,-100.00,ENE,73,2.0,5.0,86,0.00,,,0.00,12.000000,,2013-06-26 03:11:00,
2013-06-25 22:12:00,72.0,68.0,-100.00,SSW,209,1.0,4.0,87,0.00,,,0.00,0.000000,,2013-06-26 03:12:00,
2013-06-25 22:33:00,72.0,68.0,-100.00,SSW,209,1.0,4.0,87,0.00,,,0.00,0.000000,,2013-06-26 03:33:00,
2013-06-25 22:43:00,72.0,68.0,-100.00,SSW,209,1.0,4.0,87,0.00,,,0.00,0.000000,,2013-06-26 03:43:00,
2013-06-25 22:52:00,72.0,68.0,-100.00,SSW,209,1.0,4.0,87,0.00,,,0.00,0.000000,,2013-06-26 03:52:00,
2013-06-25 23:01:00,72.0,68.0,-100.00,SSW,209,1.0,4.0,87,0.00,,,0.00,0.000000,,2013-06-26 04:01:00,
2013-06-25 23:33:00,67.0,65.0,-100.00,ENE,77,0.0,2.0,94,0.00,,,0.00,0.000000,,2013-06-26 04:33:00,
2013-06-25 23:43:00,67.0,65.0,-100.00,ENE,77,0.0,2.0,94,0.00,,,0.00,0.000000,,2013-06-26 04:43:00,
2013-06-25 23:53:00,67.0,65.0,-100.00,ENE,77,0.0,2.0,94,0.00,,,0.00,0.000000,,2013-06-26 04:53:00,